Theta_e
283 287 289 288 288 289 286 286 283 288 297 300 307 309 311 316 318 316 316 317 321 323 326 328 330 339 341 341 340 343 341 341 341 342 339 338 338 341 343 344 344 344 346 349
281 288 287 285 290 291 292 295 292 294 295 301 308 307 307 309 316 315 315 316 318 322 325 325 327 328 333 337 342 344 342 342 343 343 342 338 337 337 341 342 344 345 346 346
277 285 283 281 287 293 295 295 296 292 297 300 304 302 303 305 307 313 314 315 316 318 321 326 324 325 326 336 338 339 343 343 344 341 342 342 339 336 337 340 340 342 345 348
278 279 275 282 295 298 295 296 296 296 298 300 301 305 305 306 305 308 313 314 315 316 318 322 325 323 324 330 340 338 343 345 346 344 342 343 343 340 336 338 339 337 340 345
278 277 281 288 291 293 289 291 297 296 297 298 301 304 304 303 306 306 309 315 315 316 319 318 323 323 321 322 327 333 338 335 337 338 343 345 343 343 343 340 338 338 336 336
279 278 277 285 292 296 296 284 296 297 295 295 298 294 298 302 304 306 308 312 316 317 316 318 319 321 320 319 320 322 324 328 334 336 335 339 346 344 345 345 343 343 341 338
278 277 284 291 293 295 283 283 295 296 295 294 291 295 298 302 303 305 305 307 313 316 315 315 319 320 318 317 316 320 322 325 329 333 336 336 338 348 346 345 346 345 345 344
277 281 279 293 293 286 289 290 292 293 294 293 295 296 298 299 300 300 303 305 309 312 314 315 317 319 316 313 316 318 320 323 325 329 334 340 338 344 348 346 345 346 346 347
281 281 289 291 289 291 290 289 289 290 292 293 293 295 297 298 299 299 300 303 306 309 312 315 316 316 313 312 314 314 317 321 322 327 330 333 336 342 348 347 346 346 346 346
284 285 289 290 292 292 293 291 292 292 293 294 293 294 295 296 297 298 299 300 303 306 309 312 315 315 314 312 313 313 313 316 320 325 325 328 337 348 348 348 345 346 347 346
282 287 287 290 291 292 293 294 293 294 294 294 294 294 294 294 294 296 298 299 300 302 306 309 314 314 313 312 311 310 312 315 318 323 324 326 332 346 350 352 347 347 348 349
281 287 287 287 291 293 292 293 293 293 294 295 296 294 295 295 296 296 296 298 298 300 304 308 313 312 310 309 308 307 309 312 313 318 322 326 329 332 322 319 315 313 314 337
288 288 289 290 292 293 293 294 294 296 297 296 296 296 296 295 297 299 299 299 299 300 304 308 309 309 309 307 307 305 306 308 311 314 319 323 327 329 331 333 311 308 309 311
290 292 290 292 291 294 294 296 297 299 298 297 297 297 297 296 297 298 298 300 301 302 305 309 305 304 305 307 306 305 304 306 308 313 316 321 325 328 332 334 339 345 319 313
293 294 294 292 292 293 294 295 295 296 297 296 297 296 297 296 297 299 301 301 301 302 305 305 303 304 304 305 305 304 303 305 307 310 313 318 323 325 328 331 334 342 338 318
297 295 294 293 294 294 294 294 292 295 297 296 296 297 297 299 300 301 303 303 301 302 303 302 299 301 301 303 302 303 304 307 310 314 315 320 324 321 321 325 328 333 342 340
293 291 292 292 293 293 293 293 293 294 297 296 296 296 296 299 299 301 303 304 303 301 300 300 298 299 299 301 301 302 302 303 308 312 315 316 315 314 315 315 320 321 320 316
297 296 295 295 293 293 294 294 294 294 296 297 297 295 294 296 296 297 299 300 299 299 299 300 302 299 298 298 300 298 300 301 302 306 310 311 309 310 309 310 309 312 312 311
299 298 297 297 296 295 294 294 293 294 297 298 296 294 294 295 296 296 298 298 298 298 298 299 301 298 296 299 301 296 298 298 297 301 304 304 305 304 304 304 305 306 306 306
298 298 299 297 298 297 296 295 293 294 295 298 297 296 295 295 296 297 296 296 297 299 301 300 298 298 297 298 300 297 297 297 297 298 298 298 299 299 300 298 299 301 300 300
298 299 298 298 297 297 297 297 295 294 295 296 296 296 296 297 297 297 295 294 298 300 300 300 298 297 298 297 296 295 295 294 294 294 294 294 295 295 295 296 296 295 296 297
295 296 297 299 297 297 297 297 296 295 295 294 296 297 296 295 295 296 297 296 298 300 299 298 298 299 298 297 295 294 293 293 293 293 292 292 292 292 292 292 293 293 293 293
295 295 295 297 297 296 296 298 296 296 295 295 295 295 296 296 296 294 293 298 299 300 298 298 299 299 298 295 294 294 293 292 292 292 292 292 291 291 291 290 291 291 291 291
295 296 295 296 297 296 295 295 295 297 297 298 297 298 297 296 298 299 300 300 301 300 300 298 298 298 297 295 294 293 293 293 292 292 292 292 291 291 291 291 290 290 290 290
297 296 294 295 294 294 295 294 294 295 296 298 298 299 299 301 298 300 300 300 301 300 299 301 298 298 295 295 295 294 293 293 293 293 293 292 292 291 291 291 290 290 290 290
293 295 294 294 296 298 297 294 292 295 295 295 296 297 297 298 299 299 300 300 300 300 299 298 298 296 295 294 294 294 294 294 294 293 292 292 292 291 291 291 291 291 291 290
292 295 294 296 297 297 298 295 293 293 294 292 290 292 293 296 297 298 299 299 298 299 299 298 298 297 296 295 295 295 295 295 293 294 294 294 293 292 292 291 291 291 291 290
Wind_Speed
3 2 2 1 2 3 1 3 3 5 4 10 10 12 11 9 11 16 16 16 14 13 12 11 13 8 4 4 5 10 11 10 15 14 13 13 13 13 10 11 11 10 9 7
2 3 3 2 4 4 2 3 3 4 3 10 10 12 12 13 13 13 13 13 13 11 11 12 12 11 11 5 6 7 12 14 10 11 12 12 12 13 12 12 12 10 10 11
3 4 2 4 5 6 7 9 4 5 4 7 11 10 13 12 12 13 12 14 13 12 12 10 12 13 12 10 5 6 12 15 14 9 10 12 11 11 13 13 12 12 12 12
2 4 2 3 5 6 10 6 6 6 8 8 5 1 9 13 14 15 11 11 11 5 8 9 10 14 14 13 7 7 5 6 4 9 11 9 11 13 14 12 14 13 13 13
4 3 4 2 4 3 3 1 5 3 7 8 13 7 4 13 14 13 15 4 7 11 4 10 10 10 12 14 10 10 4 3 2 2 2 9 10 15 14 13 13 13 13 14
3 4 5 3 4 4 4 4 7 6 6 8 11 4 1 13 14 13 12 12 6 6 11 7 6 6 7 10 11 7 9 8 5 3 4 5 10 15 13 12 14 11 13 13
3 2 3 3 7 5 5 2 3 5 5 5 3 4 13 13 11 11 11 13 14 4 7 9 4 3 4 6 8 10 10 7 5 7 8 7 7 8 11 11 12 13 13 12
3 2 7 5 1 3 3 2 2 4 4 9 10 12 15 13 12 9 13 14 14 12 6 8 5 6 10 8 12 12 12 12 11 10 6 6 7 8 12 12 12 14 13 11
8 6 1 3 3 2 3 1 2 3 6 8 13 13 14 16 12 11 12 12 14 12 11 6 5 1 4 6 7 12 9 10 10 11 9 9 11 11 9 11 11 12 11 10
2 1 5 4 3 3 5 5 5 4 6 9 13 15 17 17 15 15 13 12 11 15 13 11 5 3 3 5 5 8 10 11 10 12 12 8 10 8 6 10 12 12 11 11
5 6 2 5 7 6 7 6 5 5 5 11 13 17 18 18 18 15 14 12 11 12 13 14 9 5 3 5 5 5 9 8 8 9 11 13 9 9 10 14 14 13 12 11
7 8 5 5 8 7 7 8 8 7 10 10 12 15 16 17 18 17 16 14 13 14 13 13 9 5 3 5 3 4 7 7 6 7 7 11 10 9 8 9 13 14 13 13
6 5 6 3 5 6 9 9 11 12 10 12 14 14 18 17 17 19 18 15 14 13 14 14 7 4 3 3 5 2 4 7 7 7 6 7 8 8 7 5 2 9 17 17
4 5 4 6 6 6 7 8 10 10 9 11 12 16 16 17 17 18 18 16 12 11 14 10 6 5 5 3 4 6 5 9 7 4 6 8 8 8 6 6 5 6 10 13
8 9 8 2 2 6 5 6 9 9 8 10 12 15 17 17 17 18 17 15 11 14 14 7 5 4 4 5 5 5 5 4 6 4 6 8 7 8 6 6 5 6 3 3
7 8 6 7 9 7 6 8 7 9 7 10 13 14 14 17 16 20 18 15 13 12 6 4 3 3 4 5 6 5 4 7 8 6 5 5 5 5 7 6 4 5 5 5
3 4 4 6 7 6 7 6 6 6 6 10 10 10 15 13 13 12 5 3 3 4 2 1 3 2 4 4 5 5 3 3 9 5 5 3 4 4 5 6 5 4 4 7
8 6 6 6 5 5 5 5 5 5 6 9 7 7 12 12 12 12 10 7 5 5 4 4 4 3 5 5 3 4 4 2 3 3 4 3 4 4 5 3 4 4 4 8
4 6 6 6 7 6 5 4 4 3 5 6 6 3 7 9 8 10 10 9 5 4 4 5 6 5 4 7 5 4 3 3 2 1 2 3 4 5 5 5 4 6 6 7
4 3 2 4 4 6 6 4 1 1 5 4 6 4 3 4 8 7 6 7 7 4 6 3 3 3 3 7 7 3 3 3 2 2 3 6 5 5 5 6 6 7 7 8
7 6 7 7 5 4 4 5 5 3 2 4 5 5 6 5 5 7 7 4 8 7 5 7 5 4 4 6 5 3 4 4 5 5 5 6 5 7 7 7 6 7 7 7
3 2 6 5 4 4 5 6 6 5 4 2 4 5 6 7 7 5 5 4 4 12 8 5 3 10 7 9 4 4 6 6 6 5 6 5 6 7 6 6 6 7 8 8
3 4 6 5 4 5 4 6 6 6 6 6 4 3 2 2 2 3 4 6 4 7 7 7 10 12 14 7 6 6 7 7 7 8 8 5 6 7 7 7 6 7 7 9
4 4 3 1 4 5 6 6 6 7 5 5 7 5 4 3 3 3 2 8 11 8 3 7 11 13 11 6 8 8 7 9 9 8 7 7 6 6 8 7 6 7 6 11
2 4 4 3 5 4 4 5 5 6 5 5 5 6 6 4 5 5 3 3 7 10 5 7 11 11 5 5 7 7 8 9 8 7 7 7 6 7 8 7 7 6 6 8
3 3 3 3 2 3 3 2 3 2 1 3 4 4 3 4 4 4 4 3 5 3 5 3 2 4 4 3 6 9 9 8 9 9 9 8 7 7 5 5 6 5 5 6
2 1 3 3 2 2 4 3 3 2 1 2 1 4 2 2 3 5 6 4 4 5 2 2 4 3 1 3 3 3 5 6 7 6 5 4 3 3 4 5 4 4 5 6
Wind_Direction
166 208 96 279 293 293 164 205 137 265 63 354 349 4 354 3 25 57 28 33 31 23 30 20 14 357 336 229 221 189 190 202 210 209 207 205 211 213 201 192 201 206 210 208
0 29 59 83 24 60 53 309 219 186 81 351 44 18 1 7 13 31 33 25 26 24 20 20 9 357 350 324 271 182 200 214 214 213 207 205 207 215 211 211 204 190 207 213
289 0 76 22 341 105 101 38 340 58 48 353 44 24 10 351 1 12 25 9 19 14 5 21 2 356 347 314 319 250 212 213 208 207 211 207 203 207 220 219 213 209 209 207
182 20 61 200 354 67 107 90 70 42 358 20 7 145 47 10 358 354 5 13 355 337 1 358 3 5 346 345 335 344 49 157 151 209 216 211 204 207 216 219 219 216 217 213
123 157 283 118 358 10 20 106 25 65 39 352 337 293 189 18 349 348 340 13 350 332 10 10 6 2 353 346 356 350 1 13 41 55 326 221 223 220 217 218 222 220 218 217
137 146 221 184 272 314 288 259 4 2 17 1 345 358 281 349 334 334 338 328 311 353 333 31 354 337 7 348 333 334 328 311 284 281 220 267 236 235 231 219 226 222 223 218
152 185 281 194 266 295 165 245 319 1 347 355 331 280 304 313 320 329 324 323 322 336 337 305 346 322 38 350 304 315 314 308 309 258 222 218 241 234 228 217 225 225 224 220
87 163 260 197 274 197 197 177 31 306 317 302 293 295 298 299 304 317 318 321 314 312 299 314 354 2 334 352 330 329 331 337 347 326 299 262 228 256 221 214 214 227 222 223
176 217 223 188 224 99 120 224 291 288 286 281 290 291 292 295 305 304 302 304 308 302 308 316 318 294 300 301 337 331 325 315 332 321 313 276 250 237 217 214 214 217 222 220
37 275 198 204 215 205 195 222 264 272 298 308 302 300 293 290 290 293 291 292 301 305 303 298 273 246 258 293 336 334 328 333 324 310 304 258 248 223 212 211 214 220 209 221
258 268 270 249 208 208 226 241 274 277 269 305 296 295 296 288 286 279 282 282 280 282 288 284 299 304 319 323 343 350 307 308 323 315 315 305 331 302 227 218 207 206 216 209
222 216 168 223 207 203 212 229 235 267 290 285 298 287 289 279 279 279 274 271 270 271 271 276 270 235 265 303 300 316 312 312 310 308 322 315 311 310 266 242 230 221 234 216
217 185 199 180 200 211 223 235 236 239 252 278 298 290 283 279 273 272 268 259 254 260 271 272 253 258 220 252 282 272 270 292 297 309 315 300 298 303 314 300 230 237 232 227
177 131 283 183 231 213 216 245 253 252 247 266 296 286 276 276 273 266 263 265 253 256 268 254 245 275 300 289 287 283 270 276 272 296 301 298 297 285 283 274 288 251 227 222
208 202 223 122 239 255 244 267 276 265 273 297 302 290 284 273 267 269 256 250 248 257 259 223 229 253 305 304 297 295 291 291 288 290 279 283 294 295 288 284 276 276 248 221
220 202 227 235 260 271 279 286 255 264 281 305 298 303 307 294 270 257 248 241 230 236 197 211 233 260 312 307 299 298 291 309 304 300 268 277 301 319 301 290 309 274 256 240
170 250 224 248 233 252 254 256 240 270 285 302 307 321 320 332 347 7 80 86 142 117 120 255 294 351 329 304 302 282 300 328 322 323 321 345 330 324 318 326 344 360 344 324
207 217 202 202 200 220 254 244 258 283 287 307 311 332 331 350 358 4 21 40 59 65 18 347 303 17 331 316 304 308 304 342 347 330 314 341 342 350 329 342 1 7 3 0
225 239 227 218 215 207 224 229 254 272 307 321 317 324 330 336 1 4 6 10 17 16 27 321 355 357 318 318 15 313 344 358 341 354 314 9 36 13 349 356 27 36 39 28
263 220 349 292 210 202 206 192 213 298 321 325 321 15 344 358 356 11 7 6 358 354 342 294 311 356 3 357 7 340 33 26 339 25 25 56 41 32 6 18 32 50 54 46
221 210 236 216 223 220 190 156 150 187 309 351 346 340 341 5 18 6 11 1 350 2 330 13 29 15 29 42 18 2 56 52 48 36 35 51 52 44 19 21 29 47 55 59
318 319 299 293 272 252 186 165 166 186 190 254 327 348 354 14 0 353 9 6 344 17 356 344 359 50 54 51 31 30 56 52 55 43 52 31 57 60 38 17 28 45 56 60
231 259 263 248 252 208 161 173 177 196 196 211 229 248 301 351 326 333 344 332 350 25 18 5 34 46 54 51 49 47 52 59 51 48 48 27 53 67 63 39 21 46 53 61
341 296 282 321 181 143 165 199 193 213 220 214 224 223 215 252 297 190 304 338 342 7 33 33 24 37 42 37 48 45 40 50 53 53 51 39 45 53 68 57 41 36 61 59
312 296 324 290 211 213 171 180 194 232 234 235 256 246 237 223 213 244 218 175 356 354 359 85 19 28 360 44 53 56 56 54 55 53 48 48 41 48 58 51 55 45 55 73
297 239 255 305 302 183 104 113 207 223 318 287 275 271 255 247 247 242 263 197 164 337 332 86 108 335 352 11 80 77 66 56 61 58 46 37 32 42 48 52 49 46 58 70
339 300 24 14 349 296 123 183 170 125 202 259 357 342 354 309 260 235 237 228 146 154 286 338 144 192 356 11 39 73 81 80 80 84 77 79 53 30 43 49 25 22 38 48